www.pogodaiklimat.ru

Погода и климат >> Архив погоды >> Казахстан >> Костанай


АРХИВ ПОГОДЫ в Костанае

Время (UTC), дата Ветер
(напр.,м/с)
 
Видим.   Явления Облачность Т
(С)
Тd
(С)
f
(%)
Тe
(С)
Тes
(С)
Комфортность P
(гПа)
Po
(гПа)
Тmin
(С)
Tmax
(С)
R
(мм)
R24
(мм)
S
(см)
03 19.04 СВ 2 50 км 9/0
[Ci]
-1.9 -8.1 63 -5 -3 очень
холодно
1025.4 1006.1
06 19.04 СВ 5 50 км 9/0
[Ac trans Ci]
+3.0 -5.8 52 -2 +2 очень
холодно
1023.5 1004.4 -5.3
09 19.04 СВ 5 50 км 9/0
[Ac lent Ci]
+5.3 -6.0 44 +1 +5 очень
холодно
1021.1 1002.4
12 19.04 С 4 50 км 8/0
[Ac trans Ci]
+6.3 -6.1 41 +3 +5 очень
холодно
1019.9 1001.2
15 19.04 С 2 20 км 9/0
[Ac trans Ci ing]
+3.3 -6.2 50 +1 +1 холодно 1020.2 1001.2 +7.0
18 19.04 С 1 н/о 6/0
[Ac trans Ci fib]
-2.8 -9.7 59 -5 -5 очень
холодно
1020.8 1001.4 +7.0
21 19.04 штиль 0 н/о 8/0
[Ac trans Ci fib]
-5.3 -11.2 63 -6 -6 холодно 1020.8 1001.3
00 20.04 штиль 0 н/о 6/0
[Ci]
-5.8 -10.1 72 -6 -6 холодно 1020.7 1001.2
03 20.04 штиль 0 50 км 3/0
[Ci fib]
-0.8 -6.5 65 -2 +2 холодно 1021.2 1001.9
06 20.04 З 3 50 км ясно +8.1 +0.6 59 +6 +15 опасность
простуды
1020.4 1001.8 -6.4
09 20.04 З 4 50 км 8/8 1000 м
[Cu hum]
+11.0 -1.4 42 +9 +11 по сезону 1019.8 1001.4
12 20.04 З 4 50 км 8/8 600 м
[Cu Sc]
+10.3 -3.0 39 +8 +9 прохладно 1020.0 1001.6
15 20.04 С 3 20 км 3/0
[Ac lent]
+7.1 -3.3 48 +5 +5 прохладно 1021.0 1002.3 +11.5
18 20.04 С 1 н/о 8/0
[Ac trans]
+2.1 -5.5 57 +1 +1 прохладно 1023.4 1004.3 +11.5
21 20.04 штиль 0 н/о 3/0
[Ac lent]
-2.7 -8.0 67 -3 -3 холодно 1024.4 1004.9
00 21.04 штиль 0 н/о ясно -4.2 -8.4 72 -5 -5 прохладно 1024.7 1005.2
03 21.04 штиль 0 50 км ясно +0.7 -4.3 69 -0 +4 прохладно 1025.1 1005.9
06 21.04 З 2 50 км 8/8 1000 м
[Cu med, cong]
+7.7 -0.2 57 +6 +8 по сезону 1024.4 1005.7 -4.6
09 21.04 З 3 50 км 8/8 1000 м
[Cu med, cong]
+9.4 0.0 52 +8 +10 по сезону 1023.4 1004.9
12 21.04 З 3 50 км 8/8 1000 м
[Cu med, cong]
+9.4 -0.5 50 +8 +8 прохладно 1022.5 1004.0
15 21.04 З 2 20 км 8/8 1000 м
[Cu med, cong]
+7.7 -0.9 54 +6 +6 по сезону 1022.8 1004.1 +10.0
18 21.04 СЗ 1 н/о 3/0
[Ac lent]
+0.5 -5.7 63 -1 -1 холодно 1023.5 1004.3 +10.0
21 21.04 штиль 0 н/о 8/0
[Ac lent]
-1.7 -6.6 69 -3 -3 холодно 1023.7 1004.4
00 22.04 штиль 0 н/о 9/8 600 м
[Sc Ac trans]
-0.3 -5.4 68 -1 -1 по сезону 1023.8 1004.6
03 22.04 штиль 0 50 км 9/6 1000 м
[Sc Ac trans]
+4.1 -2.1 64 +4 +4 по сезону 1023.7 1004.8
06 22.04 З 2 50 км 8/8 600 м
[Cu Sc]
+9.6 -0.2 50 +8 +11 по сезону 1022.9 1004.4 -2.3
09 22.04 З 4 50 км 8/8 1000 м
[Cu med, cong]
+12.5 +0.6 44 +11 +13 по сезону 1021.7 1003.3
12 22.04 З 4 50 км 9/9 1000 м
[Cu med, cong]
+12.4 +1.1 46 +11 +11 по сезону 1020.3 1002.0
15 22.04 Ю 2 20 км 9/0
[Ac trans]
+10.3 +1.5 54 +9 +9 по сезону 1019.9 1001.5 +13.3
18 22.04 Ю 2 н/о 8/0
[Ac trans]
+8.0 +1.7 64 +6 +6 по сезону 1020.1 1001.5 +13.3
21 22.04 Ю 1 н/о 8/3 600 м
[Sc Ac trans]
+5.3 +0.4 71 +4 +4 по сезону 1019.3 1000.5
00 23.04 Ю 2 н/о 9/8 600 м
[Sc Ac lent]
+5.8 +0.1 67 +4 +4 по сезону 1018.2 999.5
03 23.04 Ю 1 50 км 9/3 600 м
[Sc Ac trans]
+7.5 -0.2 58 +7 +8 по сезону 1017.7 999.1
06 23.04 ЮЗ 3 50 км 8/3 1000 м
[Cu med, cong Ac trans Cc]
+15.4 +3.4 45 +15 +19 тепло 1015.9 997.9 +5.3
09 23.04 ЮЗ 5 50 км 9/8 1000 м
[Cu med, cong Ac trans Ci fib]
+17.3 0.0 31 +17 +18 тепло 1014.3 996.4
12 23.04 З 6 50 км 8/5 1000 м
[Cu med, cong Ac trans]
+18.2 -0.7 28 +18 +18 тепло 1013.0 995.2
15 23.04 З 4 20 км 9/6 1000 м
[Sc Ac trans]
+14.1 -0.2 37 +13 +13 тепло 1013.6 995.5 +18.8
18 23.04 З 2 н/о 6/6 600 м
[Sc]
+8.1 -2.7 46 +7 +7 по сезону 1014.0 995.5 +18.8
21 23.04 З 1 н/о 8/8 600 м
[Sc]
+7.9 -0.7 55 +8 +8 тепло 1013.5 995.0
00 24.04 З 1 н/о 9/4 600 м
[Sc Ac trans]
+3.2 -3.2 63 +2 +2 по сезону 1014.1 995.2
03 24.04 С 1 50 км 6/3 600 м
[Sc Ac trans]
+6.5 -1.6 56 +6 +8 по сезону 1014.8 996.2
06 24.04 З 3 50 км 4/0
[Ci]
+12.8 0.0 41 +12 +21 тепло 1013.8 995.6 +3.2
09 24.04 З 7 50 км пыльный позёмок 9/6 1000 м
[Cu med, cong Ci fib]
+14.5 +1.1 40 +13 +14 тепло 1012.7 994.6
12 24.04 З 8 50 км пыльный позёмок 8/6 1000 м
[Cu med, cong Ac trans Ci fib]
+14.3 +1.3 41 +12 +12 по сезону 1011.6 993.5
15 24.04 З 5 20 км {метель} 9/4 1000 м
[Sc Ac trans]
+11.2 +1.1 50 +9 +9 по сезону 1010.6 992.4 +15.1
18 24.04 СЗ 4 н/о {метель} 9/3 1000 м
[Sc Ac trans]
+7.4 +0.2 60 +4 +4 по сезону 1011.4 992.8 +15.1
21 24.04 З 2 н/о 9/0
[Ac trans]
+5.5 -0.3 66 +3 +3 по сезону 1009.5 991.0
00 25.04 З 3 50 км 9/5 1000 м
[Sc Ac trans]
+6.9 +1.7 69 +4 +4 по сезону 1008.6 990.1
03 25.04 З 4 20 км в посл. час ливневой дождь 9/9 600 м
[Cb cap]
+6.3 +2.4 76 +3 +3 по сезону 1009.4 990.9
06 25.04 З 6 50 км {ливн. осадки} 9/9 1000 м
[Cu Sc]
+8.0 +2.3 67 +4 +5 холодно 1010.8 992.4 +5.1 0.5
09 25.04 З 7 50 км 9/9 600 м
[Cu med, cong]
+7.9 +1.3 63 +4 +4 холодно 1012.7 994.2
12 25.04 З 4 50 км 8/8 1000 м
[Cu med, cong]
+9.1 +1.1 57 +7 +7 холодно 1014.0 995.5
15 25.04 З 2 20 км 9/6 600 м
[Sc Ac lent]
+7.3 +0.2 61 +6 +6 прохладно 1014.9 996.3 +9.1
18 25.04 З 1 н/о 8/8 600 м
[Sc]
+3.3 -1.4 71 +2 +2 прохладно 1015.6 996.8 +9.1
21 25.04 штиль 0 н/о 6/0
[Ac trans]
-0.2 -4.3 74 -1 -1 прохладно 1015.8 996.8
00 26.04 штиль 0 н/о 9/9 600 м
[Sc]
+1.2 -3.3 72 0 0 по сезону 1015.7 996.7

 

Местоположение метеостанции Костанай (Костанайская область, Казахстан): широта 53.22 долгота 63.62 высота над уровнем моря 156 м.

В архиве по умолчанию представлена погода в Костанае за последнюю неделю. Архивные данные за месяц целиком и за предыдущие месяцы, начиная с января 2011 года, Вы можете получить, выбрав интересующий диапазон дат из раскрывающегося списка и нажав кнопку "Ввод!".


*Определитесь, кто Вы:
робот инопланетянин человек

Внимание! Время в таблицах - всемирное. Для получения местного времени необходимо прибавить поправку, которая равна 6 ч.

Смотрите также архив погоды в соседних городах и на ближайших метеорологических станциях:

Погода в Костанае 2 (Костанайская область, Казахстан) (3 км)
Погода в Рудном (Костанайская область, Казахстан) (43 км)
Погода в Тоболе (Костанайская область, Казахстан) (91 км)
Погода в Кусмурыне (Костанайская область, Казахстан) (109 км)
Погода в Карабалыке (Костанайская область, Казахстан) (118 км)
Погода в Сарыколе (Костанайская область, Казахстан) (129 км)
Погода в Михайловке (Костанайская область, Казахстан) (136 км)
Погода в Диевской (Костанайская область, Казахстан) (136 км)
Погода в Карасу (Костанайская область, Казахстан) (140 км)
Погода в Целинном (Курганская область, Россия) (142 км)

Пояснения к столбцам:

Ветер - указаны скорость ветра в м/с - средняя за 10 мин, порывы в срок и между сроками (в фигурных скобках) и направление, откуда дует ветер: С - северный, СВ - северо-восточный, В - восточный, ЮВ - юго-восточный, Ю - южный, ЮЗ - юго-западный, З - западный, СЗ - северо-западный.
Видимость - горизонтальная дальность видимости в метрах или километрах. При видимости от 1 до 10 км при отсутствии осадков обычно наблюдается дымка, при ухудшении видимости до 1 км и менее - туман. В сухую погоду видимость может ухудшаться дымом, пылью или мглою.
Явления - указаны атмосферные явления, наблюдавшиеся в срок или в последний час перед сроком; фигурными скобками обозначены явления, наблюдавшиеся между сроками (за 1-3 часа до срока); квадратными скобками обозначены град или гололедные отложения с указанием их диаметра в мм.
Облачность - указаны через наклонную черту общая и нижняя облачность в баллах и высота нижней границы облаков в метрах; квадратными скобками обозначены формы облаков: Ci - перистые, Cs - перисто-слоистые, Cc - перисто-кучевые, Ac - высококучевые, As - высокослоистые, Sc - слоисто-кучевые, Ns - слоисто-дождевые, Cu - кучевые, Cb - кучево-дождевые. Подробнее классификацию облаков см. в Атласе облаков (PDF).
T - Температура воздуха - температура, измеренная на высоте 2 м над землей.
Td - Температура точки росы - температура, при понижении до которой содержащийся в воздухе водяной пар достигнет насыщения.
f - Относительная влажность воздуха - влажноcть воздуха, измеренная на высоте 2 м над землей.
Te - Эффективная температура - температура, которую ощущает одетый по сезону человек в тени. Характеристика душности погоды. При расчете учитывается влияние влажности воздуха и скорости ветра на теплоощущения человека.
Tes - Эффективная температура на солнце - температура, которую ощущает человек, с поправкой на солнечный нагрев. Характеристика знойности погоды. Зависит от высоты солнца над горизонтом, облачности и скорости ветра. Ночью, в пасмурную погоду, а также при ветре 12 м/с и более поправка равна нулю.
P - Атмосферное давление - приведенное к уровню моря атмосферное давление.
Po - Атмосферное давление - измеренное на уровне метеостанции атмосферное давление.
Tmin - Минимальная температура - минимум температуры воздуха на высоте 2 м над землей.
Tmax - Максимальная температура - максимум температуры воздуха на высоте 2 м над землей.
R - Количество осадков - Количество выпавших осадков за период времени, мм. При наведении курсора мыши на число - период времени, за который выпало указанное количество осадков.
R24 - Количество осадков - Количество выпавших осадков за 24 часа, мм.
S - Снежный покров - Высота снежного покрова, см. При наведении курсора мыши на число - состояние снежного покрова и степень покрытия местности в баллах.